Tonbridge, United Kingdom
Current Conditions -  °F | °C
As of 2:50 PM on Sunday 23 Nov 2014 (Local Time) from EGKB Reporting Station
Moderate Rain Moderate Rain  
Wind Chill: 37°   Ceiling: 500
Heat Index: 43°   Visibility: 5mi
Dew Point: 41°   Wind: 10mph
Humidity: 93%   Direction: 350°N
Pressure: 30"   Gusts: NA
Location:  51.2°N, 0.27°E
Report Text: EGKB 231450Z 35009KT 8000 RA BKN005 06/05 Q1016
Loading
Personal Weather Stations






























Interactive Weather Map New forecast layout! Learn more

10-Day Weather Forecast

Advertisements
Track Severe Weather on mobile